User: anonymous   Login
Location: Albany
(35.0000°S, 118.0000°E)
Time: 03:07:18
(UTC-04:00)
Language:

ERS-1 Rocket - Orbit

View from above orbital plane
View from above orbital plane
View from above satellite
View from above satellite

Ground track
Ground track

The orbit data is extracted from the following two-line orbital elements,

1 21610U 91050F   15143.14214221  .00000206  00000-0  78936-4 0  9991
2 21610 098.7057 179.5434 0004037 054.4557 340.5366 14.40612157251258
Epoch (UTC): 23 May 2015 03:24:41
Eccentricity: 0.0004037
inclination: 98.7057°
perigee height: 753 km
apogee height: 759 km
right ascension of ascending node: 179.5434°
argument of perigee: 54.4557°
revolutions per day: 14.40612157
mean anomaly at epoch: 340.5366°
orbit number at epoch: 25125

The dashed part of the orbit path shows where the satellite is in the earth's shadow,  

DLR